Home   Weather   Fremont   Past weeks

Flag for USA Past Weather in Fremont, California, USA — Yesterday and Last 2 Weeks

Now
53 °F

Sunny.


Feels Like: 52 °F
Forecast: 40 / 57 °F
Wind: 5 mph from North

Location: Moffett Field

Current Time: Jan 17, 2017 at 3:40:00 pm

Latest Report: Jan 17, 2017 at 2:56 pm


Visibility: 9 mi

Pressure: 30.11 "Hg

Humidity: 61%

Dew Point: 40 °F

Location of FremontLocation

Past Weather in Fremont — Graph

°F

Fremont Temperature Yesterday

Maximum temperature yesterday: 55 °F (at 1:56 pm)
Minimum temperature yesterday: 40 °F (at 12:56 am)
Average temperature yesterday: 46 °F

High & Low Weather Summary for the Past Weeks

 TemperatureHumidityPressure
High63 °F (Jan 8, 12:56 pm)97% (Jan 4, 8:19 am)30.26 "Hg (Jan 4, 8:19 am)
Low33 °F (Jan 6, 5:56 am)42% (Jan 14, 1:56 pm)29.73 "Hg (Jan 10, 7:56 pm)
Average50 °F79%30.03 "Hg
* Reported Jan 2 1:56 pm — Jan 17 1:56 pm, Fremont, Weather by CustomWeather, © 2017

Note: Actual official high and low records may vary slightly from our data, if they occured in-between our weather recording intervals... More about our weather records

Advertising

Fremont Weather History for the Previous 24 Hours

Scroll right to see more
 ConditionsComfort  
Time TempWeatherWind HumidityBarometerVisibility
1:56 pm
Tue, Jan 17
52 °FSunny.7 mph66%30.12 "Hg7 mi
12:56 pm51 °FSunny.6 mph66%30.12 "Hg7 mi
11:56 am50 °FSunny.7 mph74%30.15 "Hg6 mi
10:56 am46 °FSunny.No wind79%30.16 "Hg6 mi
9:56 am45 °FPartly sunny.6 mph82%30.17 "Hg7 mi
8:56 am41 °FFog.6 mph86%30.15 "Hg6 mi
7:56 am39 °FSunny.7 mph86%30.09 "Hg7 mi
6:56 am38 °FClear.No wind86%30.14 "Hg9 mi
5:56 am38 °FClear.No wind86%30.12 "Hg10 mi
4:56 am37 °FClear.3 mph89%30.12 "Hg10 mi
3:56 am38 °FClear.No wind86%30.13 "Hg10 mi
2:56 am39 °FClear.No wind86%30.13 "Hg10 mi
1:56 am40 °FClear.No wind86%30.13 "Hg10 mi
12:56 am40 °FClear.No wind86%30.13 "Hg10 mi
11:56 pm
Mon, Jan 16
41 °FClear.No wind82%30.13 "Hg10 mi
10:56 pm42 °FClear.No wind79%30.13 "Hg10 mi
9:56 pm43 °FClear.No wind76%30.14 "Hg10 mi
8:56 pm47 °FClear.No wind71%30.14 "Hg10 mi
7:56 pm48 °FClear.6 mph74%30.13 "Hg10 mi
6:56 pm49 °FClear.6 mph74%30.12 "Hg10 mi
5:56 pm51 °FClear.5 mph59%30.10 "Hg10 mi
4:56 pm55 °FSunny.6 mph44%30.10 "Hg10 mi
3:56 pm55 °FSunny.5 mph47%30.10 "Hg10 mi
Weather by CustomWeather, © 2017

See weather overviewHow to use our weather pages